Hourly Data Report for June 20, 2021

OTTAWA INTL A
ONTARIO
Current Station Operator: NAVCAN

45°19'00.000" N
75°40'00.000" W
114.90 m
6106001
71628
YOW

Download Data

Hourly Data (June 2021)
Hourly Data Report for June 20, 2021
TIME
LST
Temp Definition
°C
Dew Point Definition
°C
Rel Hum Definition
%
Precip. Amount Definition
mm

Wind Dir Definition
10's deg

Wind Spd Definition
km/h
Visibility Definition
km
Stn Press Definition
kPa
Hmdx Definition


Wind Chill Definition


Weather Definition


00:00 17.8 13.0 73   36 7 24.1 99.28     LegendNANA
01:00 17.7 13.2 74   32 5 24.1 99.30     Mostly Cloudy
02:00 16.0 13.2 83   8 3 24.1 99.30     LegendNANA
03:00 16.0 12.8 81   36 2 24.1 99.32     LegendNANA
04:00 14.5 12.9 90   10 4 24.1 99.33     Mainly Clear
05:00 14.0 11.7 86   5 3 24.1 99.37     LegendNANA
06:00 17.8 13.1 74   1 8 24.1 99.43     LegendNANA
07:00 19.2 13.2 68   4 10 24.1 99.43     Clear
08:00 21.0 13.6 62   7 9 24.1 99.45     LegendNANA
09:00 21.8 13.6 59   11 7 24.1 99.47 25   LegendNANA
10:00 24.3 15.0 55   18 7 24.1 99.43 28   Clear
11:00 24.4 13.6 51   21 16 24.1 99.40 28   LegendNANA
12:00 25.0 14.5 52   29 4 24.1 99.38 29   LegendNANA
13:00 26.8 13.0 42   23 14 24.1 99.27 30   Mostly Cloudy
14:00 26.8 12.1 39   23 15 24.1 99.27 29   LegendNANA
15:00 27.5 12.4 39   20 17 24.1 99.23 30   LegendNANA
16:00 26.9 12.0 39   22 13 24.1 99.20 29   Mostly Cloudy
17:00 26.9 12.5 40   17 3 24.1 99.12 29   LegendNANA
18:00 25.8 13.5 46   17 11 24.1 99.15 29   LegendNANA
19:00 25.0 13.9 50   20 10 24.1 99.18 28   Mostly Cloudy
20:00 23.0 14.0 57   20 11 24.1 99.20 26   LegendNANA
21:00 20.9 13.9 64   17 7 24.1 99.22     LegendNANA
22:00 19.9 13.4 66   18 7 24.1 99.21     Mostly Cloudy
23:00 19.8 13.0 65   19 8 24.1 99.22     LegendNANA

Notes on Data Quality.

Legend

  • E = Estimated
  • M = Missing
  • NA = Not Available*
  • [empty] = Indicates an unobserved value
Date modified: